User: anonymous   Login
Location: Unspecified
(0.0000°N, 0.0000°E)
Time: 04:15:13
(UTC+00:00)
Language:

YAOGAN 2 - Orbit

View from above orbital plane
View from above orbital plane
View from above satellite
View from above satellite

Ground track
Ground track

The orbit data is extracted from the following two-line orbital elements,

1 31490U 07019A   18292.84196546  .00000071  00000-0  17661-4 0  9992
2 31490  98.0840  48.8829 0019488 254.8018 105.1037 14.76888467614271
Epoch (UTC): 19 October 2018 20:12:25
Eccentricity: 0.0019488
inclination: 98.0840°
perigee height: 625 km
apogee height: 653 km
right ascension of ascending node: 48.8829°
argument of perigee: 254.8018°
revolutions per day: 14.76888467
mean anomaly at epoch: 105.1037°
orbit number at epoch: 61427

The dashed part of the orbit path shows where the satellite is in the earth's shadow,  

DLR